When you browse on this site, cookies collect data to enhance your experience and personalize the content and advertising you see.
Visit our Privacy Policy to learn more. By continuing to use the site, you agree to this use of cookies and data.
  • în România
  • Lista ţărilor
  • Pe 7 zile
  • Temperatura apei
  • Hartă satelitară
  • Meteo pe hartă
  • Widget-uri
  • user-avatar
    Intrare

    Meteo pe oră la Sosone

    Astăzi, 21 Iulie, Duminică

    Timp Temperatura Precipitaţii Vânt Presiune Umiditate
    00:00 +14°C° 0 mm 1 m/s 753 mmHg 97%
    01:00 +14°C° 0 mm 1 m/s 753 mmHg 97%
    02:00 +14°C° 0 mm 1 m/s 753 mmHg 97%
    03:00 +14°C° 0 mm 1 m/s 754 mmHg 97%
    04:00 +14°C° 0 mm 1 m/s 754 mmHg 97%
    05:00 +14°C° 0 mm 1 m/s 754 mmHg 97%
    06:00 +16°C° 0 mm 1 m/s 754 mmHg 91%
    07:00 +18°C° 0 mm 1 m/s 754 mmHg 85%
    08:00 +20°C° 0 mm 1 m/s 754 mmHg 79%
    09:00 +22°C° 0 mm 1 m/s 754 mmHg 71%
    10:00 +23°C° 0 mm 1 m/s 754 mmHg 64%
    11:00 +25°C° 0 mm 1 m/s 754 mmHg 56%
    12:00 +25°C° 0.1 mm 1 m/s 754 mmHg 54%
    13:00 +26°C° 0.1 mm 1 m/s 754 mmHg 53%
    14:00 +26°C° 0.1 mm 1 m/s 753 mmHg 51%
    15:00 +25°C° 0.5 mm 1 m/s 753 mmHg 60%
    16:00 +24°C° 0.5 mm 1 m/s 753 mmHg 70%
    17:00 +23°C° 0.5 mm 1 m/s 753 mmHg 79%
    18:00 +22°C° 0.1 mm 1 m/s 753 mmHg 82%
    19:00 +20°C° 0.1 mm 1 m/s 753 mmHg 86%
    20:00 +17°C° 0.1 mm 0 m/s 753 mmHg 89%
    21:00 +16°C° 0 mm 0 m/s 753 mmHg 90%
    22:00 +15°C° 0 mm 0 m/s 753 mmHg 91%
    23:00 +14°C° 0 mm 0 m/s 753 mmHg 92%

    Mâine, 22 Iulie, Luni

    Timp Temperatura Precipitaţii Vânt Presiune Umiditate
    00:00 +14°C° 0 mm 0 m/s 753 mmHg 92%
    01:00 +14°C° 0 mm 0 m/s 753 mmHg 93%
    02:00 +13°C° 0 mm 0 m/s 753 mmHg 93%
    03:00 +13°C° 0 mm 0 m/s 753 mmHg 93%
    04:00 +13°C° 0 mm 0 m/s 753 mmHg 93%
    05:00 +13°C° 0 mm 0 m/s 753 mmHg 94%
    06:00 +15°C° 0 mm 0 m/s 753 mmHg 88%
    07:00 +19°C° 0 mm 1 m/s 752 mmHg 82%
    08:00 +21°C° 0 mm 1 m/s 752 mmHg 77%
    09:00 +23°C° 0 mm 1 m/s 752 mmHg 69%
    10:00 +24°C° 0 mm 1 m/s 752 mmHg 62%
    11:00 +26°C° 0 mm 1 m/s 752 mmHg 54%
    12:00 +26°C° 0 mm 1 m/s 752 mmHg 53%
    13:00 +24°C° 0 mm 0 m/s 752 mmHg 51%
    14:00 +24°C° 0 mm 0 m/s 751 mmHg 49%
    15:00 +24°C° 0 mm 0 m/s 751 mmHg 55%
    16:00 +25°C° 0 mm 1 m/s 751 mmHg 61%
    17:00 +24°C° 0 mm 1 m/s 751 mmHg 67%
    18:00 +23°C° 0.1 mm 1 m/s 751 mmHg 74%
    19:00 +21°C° 0.1 mm 1 m/s 751 mmHg 81%
    20:00 +19°C° 0.1 mm 1 m/s 751 mmHg 88%
    21:00 +19°C° 0 mm 1 m/s 751 mmHg 89%
    22:00 +18°C° 0 mm 1 m/s 751 mmHg 90%
    23:00 +16°C° 0 mm 1 m/s 751 mmHg 92%

    Poimâine, 23 Iulie, Marţi

    Timp Temperatura Precipitaţii Vânt Presiune Umiditate
    00:00 +16°C° 0 mm 1 m/s 751 mmHg 92%
    01:00 +16°C° 0 mm 1 m/s 751 mmHg 93%
    02:00 +15°C° 0 mm 1 m/s 751 mmHg 94%
    03:00 +15°C° 0 mm 1 m/s 751 mmHg 94%
    04:00 +15°C° 0 mm 1 m/s 751 mmHg 94%
    05:00 +15°C° 0 mm 1 m/s 751 mmHg 94%
    06:00 +18°C° 0 mm 1 m/s 751 mmHg 88%
    07:00 +19°C° 0 mm 2 m/s 751 mmHg 82%
    08:00 +20°C° 0 mm 2 m/s 751 mmHg 76%
    09:00 +21°C° 0.3 mm 2 m/s 751 mmHg 72%
    10:00 +24°C° 0.3 mm 2 m/s 751 mmHg 67%
    11:00 +25°C° 0.3 mm 3 m/s 751 mmHg 62%
    12:00 +25°C° 0.3 mm 2 m/s 751 mmHg 60%
    13:00 +26°C° 0.3 mm 2 m/s 751 mmHg 58%
    14:00 +26°C° 0.3 mm 2 m/s 751 mmHg 56%
    15:00 +25°C° 0.5 mm 2 m/s 751 mmHg 63%
    16:00 +25°C° 0.5 mm 2 m/s 751 mmHg 70%
    17:00 +24°C° 0.5 mm 1 m/s 751 mmHg 78%
    18:00 +22°C° 0.2 mm 1 m/s 751 mmHg 81%
    19:00 +21°C° 0.2 mm 1 m/s 751 mmHg 85%
    20:00 +19°C° 0.2 mm 1 m/s 751 mmHg 89%
    21:00 +18°C° 0 mm 1 m/s 752 mmHg 89%
    22:00 +16°C° 0 mm 1 m/s 752 mmHg 90%
    23:00 +15°C° 0 mm 1 m/s 752 mmHg 91%

    24 Iulie, Miercuri

    Timp Temperatura Precipitaţii Vânt Presiune Umiditate
    00:00 +15°C° 0 mm 1 m/s 752 mmHg 91%
    01:00 +14°C° 0 mm 1 m/s 752 mmHg 92%
    02:00 +14°C° 0 mm 1 m/s 752 mmHg 92%
    03:00 +14°C° 0 mm 1 m/s 752 mmHg 92%
    04:00 +14°C° 0 mm 1 m/s 753 mmHg 92%
    05:00 +14°C° 0 mm 1 m/s 753 mmHg 92%
    06:00 +16°C° 0 mm 1 m/s 753 mmHg 84%
    07:00 +19°C° 0 mm 1 m/s 753 mmHg 76%
    08:00 +21°C° 0 mm 1 m/s 753 mmHg 69%
    09:00 +23°C° 0 mm 1 m/s 753 mmHg 61%
    10:00 +24°C° 0 mm 1 m/s 753 mmHg 52%
    11:00 +26°C° 0 mm 2 m/s 753 mmHg 44%
    12:00 +26°C° 0 mm 2 m/s 753 mmHg 43%
    13:00 +27°C° 0 mm 2 m/s 753 mmHg 42%
    14:00 +27°C° 0 mm 2 m/s 753 mmHg 41%
    15:00 +27°C° 0 mm 2 m/s 753 mmHg 44%
    16:00 +26°C° 0 mm 2 m/s 753 mmHg 48%
    17:00 +26°C° 0 mm 2 m/s 753 mmHg 51%
    18:00 +24°C° 0 mm 1 m/s 753 mmHg 59%
    19:00 +22°C° 0 mm 1 m/s 754 mmHg 67%
    20:00 +18°C° 0 mm 0 m/s 754 mmHg 75%
    21:00 +17°C° 0 mm 0 m/s 754 mmHg 77%
    22:00 +16°C° 0 mm 0 m/s 754 mmHg 80%
    23:00 +15°C° 0 mm 0 m/s 755 mmHg 82%

    25 Iulie, Joi

    Timp Temperatura Precipitaţii Vânt Presiune Umiditate
    00:00 +15°C° 0 mm 0 m/s 755 mmHg 85%
    01:00 +14°C° 0 mm 0 m/s 755 mmHg 88%
    02:00 +14°C° 0 mm 0 m/s 755 mmHg 90%
    03:00 +14°C° 0 mm 0 m/s 755 mmHg 90%
    04:00 +14°C° 0 mm 0 m/s 755 mmHg 90%
    05:00 +15°C° 0 mm 0 m/s 755 mmHg 90%
    06:00 +16°C° 0 mm 0 m/s 755 mmHg 83%
    07:00 +20°C° 0 mm 1 m/s 755 mmHg 76%
    08:00 +22°C° 0 mm 1 m/s 755 mmHg 69%
    09:00 +24°C° 0 mm 1 m/s 755 mmHg 63%
    10:00 +25°C° 0 mm 1 m/s 755 mmHg 58%
    11:00 +27°C° 0 mm 1 m/s 755 mmHg 52%
    12:00 +27°C° 0 mm 1 m/s 755 mmHg 52%
    13:00 +27°C° 0 mm 1 m/s 755 mmHg 51%
    14:00 +27°C° 0 mm 2 m/s 755 mmHg 51%
    15:00 +27°C° 0 mm 2 m/s 755 mmHg 52%
    16:00 +27°C° 0 mm 2 m/s 755 mmHg 53%
    17:00 +27°C° 0 mm 2 m/s 755 mmHg 55%
    18:00 +25°C° 0 mm 2 m/s 755 mmHg 64%
    19:00 +23°C° 0 mm 2 m/s 755 mmHg 74%
    20:00 +20°C° 0 mm 2 m/s 755 mmHg 84%
    21:00 +19°C° 0 mm 2 m/s 755 mmHg 88%
    22:00 +18°C° 0 mm 2 m/s 755 mmHg 92%
    23:00 +18°C° 0 mm 1 m/s 756 mmHg 97%

    26 Iulie, Vineri

    Timp Temperatura Precipitaţii Vânt Presiune Umiditate
    00:00 +18°C° 0 mm 1 m/s 756 mmHg 97%
    01:00 +18°C° 0 mm 1 m/s 756 mmHg 97%
    02:00 +16°C° 0 mm 1 m/s 756 mmHg 97%
    03:00 +15°C° 0 mm 1 m/s 756 mmHg 94%
    04:00 +15°C° 0 mm 2 m/s 756 mmHg 92%
    05:00 +14°C° 0 mm 2 m/s 756 mmHg 90%
    06:00 +16°C° 0 mm 2 m/s 756 mmHg 82%
    07:00 +17°C° 0 mm 2 m/s 756 mmHg 73%
    08:00 +19°C° 0 mm 2 m/s 756 mmHg 65%
    09:00 +21°C° 0 mm 2 m/s 756 mmHg 59%
    10:00 +22°C° 0 mm 3 m/s 756 mmHg 54%
    11:00 +25°C° 0 mm 3 m/s 756 mmHg 48%
    12:00 +25°C° 0 mm 3 m/s 756 mmHg 48%
    13:00 +25°C° 0 mm 3 m/s 755 mmHg 47%
    14:00 +26°C° 0 mm 3 m/s 755 mmHg 47%
    15:00 +25°C° 0 mm 3 m/s 755 mmHg 49%
    16:00 +25°C° 0 mm 3 m/s 755 mmHg 52%
    17:00 +24°C° 0 mm 3 m/s 755 mmHg 54%
    18:00 +21°C° 0 mm 3 m/s 755 mmHg 61%
    19:00 +19°C° 0 mm 2 m/s 755 mmHg 68%
    20:00 +18°C° 0 mm 1 m/s 755 mmHg 75%
    21:00 +18°C° 0 mm 1 m/s 755 mmHg 77%
    22:00 +16°C° 0 mm 1 m/s 755 mmHg 78%
    23:00 +15°C° 0 mm 1 m/s 755 mmHg 80%
    Arată mai mult